Theta_e
333 333 332 332 332 333 332 331 329 322 324 331 331 332 331 332 333 329 328 331 330 328 326 327 329 331 332 334 334 335 335 337 338 338 339 340 341 341
334 334 331 331 333 334 334 333 333 328 324 330 327 327 327 327 329 325 326 326 326 325 324 324 325 326 327 328 330 331 332 333 334 334 335 336 337 339
332 334 334 333 332 334 335 335 334 333 328 325 325 324 322 322 322 322 322 321 322 324 323 322 322 322 322 322 323 324 327 329 330 331 333 334 335 335
326 330 329 333 332 332 333 332 333 334 331 322 322 320 319 320 319 319 319 320 320 323 322 321 320 319 318 317 316 316 316 319 321 323 326 329 330 332
323 326 327 329 327 326 325 325 325 327 331 324 319 321 319 319 316 316 315 315 317 319 318 320 318 318 316 315 314 312 311 312 314 315 318 321 324 326
319 322 323 324 326 327 325 323 322 327 327 323 320 318 319 318 316 313 311 313 311 313 315 314 315 316 315 315 314 313 311 310 310 311 312 312 314 318
314 316 319 324 326 326 324 322 319 321 323 321 319 319 317 315 313 314 311 310 311 312 309 309 308 308 310 311 312 313 312 312 311 310 309 309 309 311
310 309 311 313 316 320 322 324 320 315 317 319 318 317 317 315 313 312 310 309 307 313 309 306 307 306 307 308 311 311 311 311 311 310 309 309 308 309
309 307 308 308 307 306 313 315 316 320 321 320 317 317 318 316 314 312 311 313 309 310 310 307 308 304 307 308 310 309 309 309 310 309 308 307 307 306
308 308 306 305 304 302 302 302 302 307 307 310 311 313 319 319 317 316 314 309 311 311 313 306 309 304 301 301 309 308 308 308 308 308 307 306 304 304
305 306 308 308 311 309 303 301 301 302 308 312 311 311 313 314 313 311 308 308 309 310 311 307 307 306 307 307 301 308 308 307 307 307 306 305 303 302
302 301 308 307 309 307 305 305 302 301 303 304 303 302 304 306 309 306 312 308 309 307 309 300 304 305 298 306 307 304 300 305 306 305 305 304 302 298
302 299 298 303 301 302 303 301 300 299 302 302 300 297 298 300 300 300 299 304 305 305 310 302 298 302 296 296 297 300 299 298 299 299 303 302 301 300
304 300 297 299 298 299 299 301 301 300 297 298 298 295 295 296 299 300 300 300 299 300 302 303 300 300 298 296 296 299 299 299 297 297 298 301 302 303
302 302 301 298 298 298 301 301 299 295 294 293 292 292 292 293 297 299 301 299 298 300 303 300 299 299 299 299 298 299 299 300 300 299 299 299 299 298
302 300 301 300 301 300 299 297 296 294 294 293 292 292 293 292 291 292 294 297 298 298 299 301 298 296 294 295 298 299 301 301 302 301 300 300 301 301
300 297 297 297 296 295 296 294 294 293 292 291 290 291 290 289 289 291 291 291 296 296 297 297 298 297 296 296 294 295 297 299 300 302 301 300 300 300
295 295 295 297 297 297 296 294 293 294 292 291 290 290 290 290 289 289 290 290 291 292 295 297 297 296 297 298 300 294 294 297 298 299 297 297 295 296
293 292 294 293 293 294 294 294 292 291 290 293 290 290 291 292 291 291 290 290 289 290 292 292 293 294 292 290 295 302 293 292 295 295 295 293 293 294
291 292 295 294 294 294 293 293 293 292 293 292 291 292 291 292 291 291 291 289 288 287 288 289 292 292 291 291 292 294 298 291 292 292 291 293 296 300
294 294 295 296 294 294 294 293 293 292 291 291 291 291 291 291 291 291 291 294 292 287 288 288 290 300 291 290 289 289 290 300 296 293 291 291 290 290
293 294 295 297 296 295 294 293 293 293 292 292 292 292 291 291 291 292 291 290 290 289 289 290 291 291 290 289 288 289 291 293 298 302 301 298 292 289
294 295 295 295 296 296 294 294 294 294 293 293 293 293 292 292 292 292 292 291 291 290 290 290 290 291 291 292 293 291 292 292 292 293 294 301 302 302
Wind_Speed
4 3 2 3 3 3 3 3 4 3 1 1 2 5 6 6 9 7 7 14 14 15 15 15 15 15 15 15 15 15 14 12 10 9 9 8 8 8
4 4 2 1 2 2 3 2 2 3 3 1 3 3 5 6 9 7 8 13 15 14 14 14 15 15 15 16 16 15 14 15 15 14 11 8 7 12
6 5 5 3 2 3 3 2 3 3 4 2 2 3 4 6 6 6 7 6 7 16 17 17 18 18 18 18 17 17 17 18 18 17 15 13 14 16
7 8 8 5 6 4 3 3 2 3 3 6 2 2 4 4 5 6 5 6 6 15 17 18 18 18 18 18 18 19 18 18 19 19 19 19 20 19
7 8 7 7 7 5 5 4 3 2 5 5 4 2 3 3 4 5 5 5 5 12 15 17 17 18 17 17 17 17 17 16 16 16 18 17 16 18
7 8 8 8 6 5 5 5 4 5 6 6 5 3 3 3 3 3 3 3 4 5 10 11 13 16 16 16 15 15 14 14 13 13 14 15 16 18
7 7 8 12 16 11 4 5 5 5 5 5 4 2 3 2 2 2 2 2 3 2 3 5 4 5 7 10 12 15 14 13 12 13 14 14 13 15
6 6 6 10 12 15 16 14 7 5 4 3 2 2 3 2 2 3 2 2 1 2 2 3 3 4 4 4 12 12 12 12 12 13 13 14 13 13
6 6 5 5 8 7 13 15 15 14 8 4 5 3 2 3 4 3 2 1 2 1 2 2 2 3 3 4 9 9 10 10 11 11 11 11 11 11
6 5 5 6 6 7 8 9 8 8 7 6 6 4 3 4 4 3 3 4 3 1 1 1 1 1 1 3 6 6 7 8 8 9 9 9 8 8
4 5 4 3 4 7 8 7 7 6 6 10 11 11 10 7 5 4 3 4 2 2 1 2 2 2 1 1 1 1 2 3 3 4 5 5 6 7
4 5 9 5 4 6 7 5 6 2 3 4 5 6 8 7 8 3 3 3 2 1 3 4 3 3 1 2 2 3 1 4 2 1 2 3 4 2
3 3 4 7 8 8 7 3 3 4 3 4 4 4 4 4 4 4 3 2 1 1 2 4 3 2 1 1 2 3 3 2 1 2 5 5 5 3
3 2 2 7 8 8 5 5 4 4 3 4 3 2 2 2 2 2 2 3 2 2 2 3 3 4 3 2 2 1 3 3 3 2 3 4 6 6
4 4 5 8 9 7 9 8 6 5 4 3 2 1 2 3 4 3 2 2 1 1 1 3 3 3 3 3 3 3 3 3 4 3 3 3 3 3
4 4 4 5 6 3 4 6 4 3 3 3 1 2 2 2 2 2 2 3 2 3 2 2 2 3 2 3 3 2 3 3 2 4 3 2 3 4
3 3 3 3 2 2 3 3 3 3 2 1 1 2 2 2 2 2 1 1 0 2 3 2 2 2 2 4 2 2 2 3 3 3 4 2 4 4
4 2 1 1 1 1 1 0 1 1 1 1 0 0 0 2 2 2 1 0 1 1 2 1 1 2 4 3 3 2 2 2 2 3 2 2 4 4
2 1 1 1 1 1 3 3 2 2 1 0 0 1 2 1 1 2 1 0 2 2 2 1 1 2 1 2 4 6 4 3 2 1 3 3 3 4
1 2 2 3 3 3 3 3 2 1 1 1 1 1 1 1 1 1 2 1 1 1 3 2 1 3 4 4 3 4 6 3 3 2 2 2 4 6
2 2 4 4 4 4 4 3 3 3 2 2 2 2 2 1 2 2 3 3 2 1 2 3 3 3 2 1 2 4 5 9 7 5 3 3 1 3
3 4 3 4 5 5 4 4 3 3 3 3 3 3 3 3 3 3 3 3 2 2 3 4 4 1 2 4 4 3 3 4 4 12 9 10 6 3
4 3 2 2 4 2 3 4 4 4 3 4 4 4 3 3 4 4 4 4 4 4 3 3 2 1 3 4 4 3 4 4 2 3 4 15 14 11
Wind_Direction
99 141 171 191 185 158 131 121 139 139 93 102 98 37 60 57 67 60 55 49 51 47 44 40 38 38 40 41 40 39 36 35 38 43 50 59 61 46
45 84 105 148 169 142 146 142 107 127 118 122 54 78 68 72 70 62 60 58 58 56 53 51 51 49 47 46 48 48 49 49 47 46 46 49 74 95
33 41 44 78 141 155 161 145 154 135 121 95 99 59 65 82 69 65 56 55 53 58 57 54 50 48 46 45 46 49 53 58 60 53 51 58 80 93
20 43 42 52 56 50 66 81 129 144 122 130 107 89 74 61 69 71 62 50 56 60 63 60 56 53 50 50 49 47 45 50 53 52 53 61 65 68
29 37 33 45 50 48 47 58 61 72 109 131 117 96 93 79 81 64 57 50 43 53 48 52 54 53 49 48 48 46 42 41 43 47 55 53 61 69
37 37 36 37 42 54 59 57 63 78 96 105 96 98 90 98 73 87 74 48 55 39 47 49 48 51 53 54 56 56 52 52 48 51 56 58 64 74
36 32 41 58 58 56 60 44 67 75 84 100 95 97 104 136 149 125 92 86 59 56 46 32 33 34 35 43 56 60 61 59 56 59 62 63 65 70
49 37 36 45 51 59 64 65 71 95 84 82 84 96 98 102 110 133 131 146 108 255 96 39 29 36 19 28 56 59 60 61 62 62 63 64 68 72
47 39 43 37 52 55 55 55 51 55 71 101 102 81 113 146 130 123 194 85 124 120 103 77 52 55 13 32 56 61 60 61 66 67 65 67 70 70
45 41 52 47 52 71 68 56 42 41 36 64 74 69 85 132 151 173 160 121 84 146 18 104 71 70 6 3 43 58 64 67 70 73 75 74 70 77
48 41 54 59 78 64 76 78 60 37 35 61 62 49 52 79 113 117 135 138 158 200 140 147 170 144 217 222 239 4 53 57 82 100 107 104 82 76
41 38 43 61 119 83 91 94 82 25 58 36 17 23 40 38 41 25 166 174 141 183 192 120 168 173 250 253 219 215 270 281 254 195 164 149 125 88
68 33 21 50 66 77 92 112 166 163 94 93 86 45 27 33 31 36 32 186 223 261 168 119 160 161 198 224 261 233 199 240 214 289 253 241 231 194
105 96 40 50 54 49 53 49 92 109 89 86 89 33 4 337 346 27 67 84 92 168 179 157 185 174 174 171 235 234 236 221 190 215 215 244 260 250
90 93 78 57 50 39 47 37 61 86 94 75 71 297 259 282 302 337 353 16 42 31 98 154 181 169 174 209 197 208 171 235 189 201 201 218 212 200
64 48 68 88 76 66 30 33 43 66 107 117 152 262 299 352 352 352 21 351 15 316 337 40 125 150 171 219 197 212 208 205 202 208 174 241 227 219
87 34 20 13 9 26 33 40 44 31 71 72 43 7 7 7 348 347 16 4 226 274 297 323 18 107 183 165 169 200 212 235 223 183 150 239 253 231
59 45 338 308 254 259 186 338 6 17 1 62 311 113 53 351 329 324 345 334 283 278 280 306 2 3 356 321 200 188 235 243 217 182 137 160 286 284
98 80 182 219 255 251 175 180 205 228 235 296 312 295 300 274 43 347 330 60 315 317 300 257 188 147 176 239 288 211 191 215 175 159 178 190 223 261
126 188 200 200 206 217 241 199 205 219 225 215 258 276 301 286 318 318 348 324 277 291 310 302 269 214 194 214 228 268 201 184 184 189 202 228 248 276
234 250 229 208 208 205 218 235 215 226 229 226 246 264 287 237 282 270 285 272 256 214 284 273 245 247 186 70 333 297 291 215 185 187 175 166 237 320
253 258 251 225 208 203 198 215 242 256 248 246 252 252 245 224 247 270 258 268 267 241 249 265 303 133 190 194 234 238 289 296 233 236 202 178 166 218
256 263 266 297 306 251 206 213 233 261 259 260 258 259 242 252 232 245 256 240 244 271 248 290 292 197 230 210 211 240 237 268 280 303 259 217 230 235